GLOBAL-13 (49773 NORAD) Tracking and Keplerian Element Data

This shows tracking and keplerian element data for the satellite.

Feedback or suggestion? Click here.




ElementValue
Catalog49773
NameGLOBAL-13
Epoch Orbit2622
Epoch Day140.5620202
Epoch Year2022
RAAN236.9559
Inclination53.2141
Eccentricity0.0008018
Argument of Perigee12.0959
Mean Anonmoly348.024
Mean Motion15.45206716
Decay Rate0.00030759
L11 49773U 21115BB 22140.56202020 .00030759 00000+0 64332-3 0 9990
L22 49773 53.2141 236.9559 0008018 12.0959 348.0240 15.45206716 26220

Live tracking and technical data element details for GLOBAL-13 (NORAD 49773). GLOBAL-13 can be tracked NOW for your location showing map with azimuth and elevation plus other details from your city location.

Track the satellite on the map from your city or location and see movement details for azimuth, elevation, latitude, longitude, range, height, and movement on the map or in text.







IsCatalogInMostPopularTable: catalog: 49773, numindb: 22
Update: records affected: 1



GetName: 49773 GLOBAL-13

Hit Count: updated at: Mon, 23 May 2022 19:56:54 GMT